TimeCST,TemperatureF,Dew PointF,Humidity,Sea Level PressureIn,VisibilityMPH,Wind Direction,Wind SpeedMPH,Gust SpeedMPH,PrecipitationIn,Events,Conditions,WindDirDegrees,DateUTC
12:14 AM,21.9,19.0,89,30.29,10.0,East,9.2,-,N/A,,Overcast,100,2013-03-01 06:14:00
12:52 AM,21.9,19.0,89,30.38,10.0,East,8.1,-,N/A,,Overcast,90,2013-03-01 06:52:00
1:52 AM,21.9,18.0,85,30.37,6.0,East,9.2,-,0.00,Snow,Light Snow,100,2013-03-01 07:52:00
2:52 AM,21.0,18.0,88,30.38,9.0,East,6.9,-,0.00,,Overcast,100,2013-03-01 08:52:00
3:52 AM,21.0,18.0,88,30.38,10.0,East,6.9,-,0.00,,Overcast,100,2013-03-01 09:52:00
4:52 AM,19.4,17.6,93,30.30,10.0,ESE,6.9,-,N/A,,Overcast,110,2013-03-01 10:52:00
5:52 AM,19.9,17.1,89,30.40,10.0,SSE,4.6,-,N/A,,Overcast,150,2013-03-01 11:52:00
6:52 AM,19.9,17.1,89,30.42,10.0,ESE,3.5,-,N/A,,Overcast,110,2013-03-01 12:52:00
7:33 AM,19.9,16.0,85,30.34,10.0,ESE,4.6,-,N/A,,Overcast,120,2013-03-01 13:33:00
7:52 AM,19.9,16.0,85,30.43,10.0,ESE,3.5,-,N/A,,Overcast,120,2013-03-01 13:52:00
8:52 AM,21.0,16.0,81,30.44,10.0,SE,4.6,-,N/A,,Overcast,130,2013-03-01 14:52:00
9:52 AM,21.0,16.0,81,30.45,10.0,East,4.6,-,N/A,,Overcast,100,2013-03-01 15:52:00
10:52 AM,21.9,17.1,82,30.45,10.0,Variable,3.5,-,N/A,,Overcast,0,2013-03-01 16:52:00
11:52 AM,23.0,18.0,81,30.45,10.0,ESE,3.5,-,N/A,,Overcast,110,2013-03-01 17:52:00
12:52 PM,27.0,19.0,72,30.43,10.0,South,6.9,-,N/A,,Overcast,180,2013-03-01 18:52:00
1:08 PM,26.1,18.0,71,30.34,10.0,SSW,6.9,-,N/A,,Mostly Cloudy,200,2013-03-01 19:08:00
1:52 PM,27.0,19.0,72,30.41,10.0,SSW,6.9,-,N/A,,Mostly Cloudy,210,2013-03-01 19:52:00
2:52 PM,28.0,21.0,75,30.40,10.0,SSE,5.8,-,N/A,,Mostly Cloudy,150,2013-03-01 20:52:00
3:11 PM,28.0,21.0,75,30.31,10.0,SSE,4.6,-,N/A,,Scattered Clouds,160,2013-03-01 21:11:00
3:52 PM,28.0,21.0,75,30.40,10.0,SW,9.2,-,N/A,,Scattered Clouds,220,2013-03-01 21:52:00
3:58 PM,28.0,21.0,75,30.31,10.0,SSW,8.1,-,N/A,,Mostly Cloudy,210,2013-03-01 21:58:00
4:06 PM,27.0,21.0,78,30.30,10.0,SSW,8.1,-,N/A,,Scattered Clouds,200,2013-03-01 22:06:00
4:52 PM,27.0,21.9,81,30.38,10.0,South,8.1,-,N/A,,Partly Cloudy,190,2013-03-01 22:52:00
5:52 PM,26.6,21.2,80,30.31,10.0,SSW,5.8,-,N/A,,Partly Cloudy,200,2013-03-01 23:52:00
6:40 PM,27.0,21.9,81,30.31,10.0,South,5.8,-,N/A,,Mostly Cloudy,190,2013-03-02 00:40:00
6:49 PM,26.6,21.2,80,30.31,10.0,South,4.6,-,N/A,,Scattered Clouds,190,2013-03-02 00:49:00
6:52 PM,27.0,21.9,81,30.39,10.0,South,4.6,-,N/A,,Scattered Clouds,180,2013-03-02 00:52:00
7:52 PM,26.1,23.0,88,30.36,10.0,ESE,6.9,-,N/A,,Clear,110,2013-03-02 01:52:00
8:52 PM,24.1,21.9,91,30.34,10.0,ESE,4.6,-,N/A,,Clear,120,2013-03-02 02:52:00
9:52 PM,25.0,19.9,81,30.32,10.0,SSE,10.4,-,N/A,,Clear,150,2013-03-02 03:52:00
10:52 PM,24.1,21.0,88,30.33,10.0,SE,6.9,-,N/A,,Mostly Cloudy,140,2013-03-02 04:52:00
11:52 PM,26.1,21.9,84,30.30,10.0,SSE,10.4,-,N/A,,Overcast,160,2013-03-02 05:52:00